Regional Weather Roundup
Issued by NWS Newport/Morehead, NC

Current Version | Previous Version | Text Only | Print | Product List | Glossary On
Versions: 1 2 3 4 5 6 7 8 9 10 11 12 13 14 15 16 17 18 19 20 21 22 23 24 25 26 27 28 29 30 31 32 33 34 35 36 37 38 39 40 41 42 43 44 45 46 47 48 49 50
000
ASUS42 KMHX 290825
RWRMHX
WEATHER ROUNDUP FOR EASTERN NORTH CAROLINA
NATIONAL WEATHER SERVICE NEWPORT/MOREHEAD CITY NC
400 AM EDT SAT AUG 29 2015

NOTE: "FAIR" INDICATES FEW OR NO CLOUDS BELOW 12,000 FEET
WITH NO SIGNIFICANT WEATHER AND/OR OBSTRUCTIONS TO VISIBILITY

NCZ015>017-031-032-045>047-102-103-290900-
NORTH COAST

CITY           SKY/WX    TMP DP  RH WIND       PRES   REMARKS
EDENTON        PTCLDY    62  61  95 N3        30.18S
ELIZABETH CITY PTCLDY    63  61  93 CALM      30.17F
KITTY HAWK     MOSUNNY   74  64  69 NE5       30.14F
MANTEO         PTCLDY    73  66  79 NE8       30.16S

$$

NCZ045>047-081-094-103-104-290900-
CENTRAL COAST

CITY           SKY/WX    TMP DP  RH WIND       PRES   REMARKS
FRISCO         CLOUDY    76  69  79 E9        30.13F
SWANQUARTER    NOT AVBL

$$

NCZ095-097-098-100-101-290900-
SOUTHERN COAST

CITY           SKY/WX    TMP DP  RH WIND       PRES   REMARKS
BEAUFORT       PTCLDY    72  70  93 N6        30.12F
CEDAR ISLAND   NOT AVBL
JACKSONVILLE   MOCLDY    69  64  84 CALM      30.14S
PINEY ISLAND   MOSUNNY  N/A N/A N/A NE12      30.12F
WILMINGTON     CLEAR     67  64  90 NE5       30.14S


$$

NCZ011>013-027>030-043-044-078>080-089-090>093-098-290900-
COASTAL PLAIN

CITY           SKY/WX    TMP DP  RH WIND       PRES   REMARKS
AHOSKIE        PTCLDY    57  55  94 CALM      30.19S
CLINTON        CLEAR     62  61  97 CALM      30.17F
ELIZABETHTOWN  CLEAR     64  63  97 CALM      30.16S
GOLDSBORO      CLEAR     62  60  93 CALM      30.16S
GREENVILLE     CLEAR     61  61 100 CALM      30.19S FOG
HAVELOCK       MOCLDY    75  69  81 NE9       30.15F
KENANSVILLE      N/A     60  59  97 CALM      30.17F
KINSTON        CLEAR     61  60  96 NW3       30.18S
NEW BERN       PTCLDY    70  66  87 NE6       30.16F
RICHLANDS      CLEAR     63  57  82 N3        30.15S
ROCKY MOUNT    FOG       60  59  96 CALM      30.19S VSB 1/4
WASHINGTON     CLEAR     62  61  96 N6        30.17S
WHITEVILLE     CLEAR     65  63  94 CALM      30.15R

$$

AMZ130-135-150-152-154-156-158-170-250-252-270-ANZ085-086-088-633-658-670-290900-
MARINE OBSERVATIONS

STATION/POSITION TIME  TEMP    WIND        PRES    WAVE   SWELL
                       AIR SEA DIR/SP/G            HT/PER HT/PER
                 (UTC) (F)     (DEG/KT/KT) (MB)    (FT/S) (FT/S)
CHESAPEAKE LIGHT 0800   75      60/  8/  9 1022.7
64 E VA BEACH    0750   77 80   60/  8/ 12 1021.2    4/10   3/10
DUCK             NOT AVBL
2 E DUCK         0711      78                N/A     3/11   2/11
OREGON INLET     NOT AVBL
13E OREGON INLT  0800      78                N/A     4/10   2/11
HATTERAS CG      NOT AVBL
DIAMOND BUOY     0750   76 82   20/ 19/ 23 1019.7    4/11   3/11
CAPE LOOKOUT     0800   76      20/ 12/ 14 1019.5
BEAUFORT LAB     NOT AVBL
30 SE NEW RVR IN 0708   79 81   50/ 17/ 21 1020.0
30 SE NEW RVR IN 0725      81                N/A     5/ 6   2/11
27 SE WRIGHTSVLE 0800   76 82   50/ 17/ 19   N/A
5 SE WRIGHTSVLE  0708   78 82   60/ 14/ 19 1020.0
225 S CAPE HAT   0750   82 84  220/ 12/ 14 1019.1    5/11   5/11
41 SE CHARLESTON 0750   80 84   50/ 16/ 17 1018.4    5/ 6   2/11

$$



USA.gov is the U.S. government's official web portal to all federal, state and local government web resources and services.